Location: Unspecified
(0.0000°N, 0.0000°E)
Time: 12:26:52
(UTC+02:00)

Meteor PRIRODA - Visible Passes

Search period start: 26 July 2017 00:00
Search period end: 05 August 2017 00:00
Orbit: 495 x 513 km, 97.4° (Epoch: 25 July)

Date Brightness Start Highest point End Pass type
(mag) Time Alt. Az. Time Alt. Az. Time Alt. Az.
26 Jul 6.4 05:53:40 10° NNE 05:54:17 14° NNE 05:54:17 14° NNE visible
29 Jul 6.0 06:33:11 10° NNW 06:33:42 13° NNW 06:33:42 13° NNW visible
30 Jul 6.1 06:14:35 10° N 06:15:16 15° N 06:15:16 15° N visible
31 Jul 6.5 05:56:23 10° NNE 05:56:50 13° NNE 05:56:50 13° NNE visible
03 Aug 6.1 06:36:02 10° NNW 06:36:15 11° NNW 06:36:15 11° NNW visible
04 Aug 6.2 06:17:20 10° N 06:17:47 13° N 06:17:47 13° N visible
